CES5375 ZSSS-ZJSY

Flight info

Callsign CES5375
Flight time N/A
Altitude 32100
Route NXD71D NXD W131 AKDIM A470 DUBGO W134 ELNEX A599 PLT W19 MASGU/K0859S1040 W19 NOMAR W18 NLG W23 ZUH R200 BIGRO G221 SAMAS/K0817S0840 G221 WL
Aircraft A321/M-SDE3FGHIRWY/LB1

Departure

Time 2026-05-07 08:42
Airport Shanghai Hongqiao International Airport (ZSSS)

Arrival

Time N/A
Airport Sanya Phoenix International Airport (ZJSY)
Time Latitude Longitude Altitude Speed Heading
2026-05-07 08:15 31.19875 121.32847 28 ft 0 kts 269°
2026-05-07 08:32 31.19875 121.32848 28 ft 1 kts 269°
2026-05-07 08:33 31.19875 121.32866 28 ft 2 kts 268°
2026-05-07 08:33 31.19876 121.32883 28 ft 2 kts 269°
2026-05-07 08:33 31.19880 121.32901 29 ft 2 kts 233°
2026-05-07 08:33 31.19891 121.32912 29 ft 2 kts 205°
2026-05-07 08:34 31.19906 121.32917 29 ft 2 kts 176°
2026-05-07 08:34 31.19921 121.32915 29 ft 2 kts 176°
2026-05-07 08:34 31.19936 121.32914 29 ft 1 kts 178°
2026-05-07 08:34 31.19939 121.32914 29 ft 0 kts 176°
2026-05-07 08:36 31.19932 121.32915 29 ft 2 kts 176°
2026-05-07 08:36 31.19905 121.32919 29 ft 4 kts 161°
2026-05-07 08:37 31.19875 121.32948 29 ft 6 kts 135°
2026-05-07 08:37 31.19821 121.32970 29 ft 10 kts 177°
2026-05-07 08:37 31.19731 121.32975 28 ft 15 kts 177°
2026-05-07 08:37 31.19610 121.32981 28 ft 19 kts 177°
2026-05-07 08:38 31.19464 121.32989 28 ft 22 kts 177°
2026-05-07 08:38 31.19298 121.32999 28 ft 25 kts 177°
2026-05-07 08:38 31.19117 121.33008 29 ft 25 kts 177°
2026-05-07 08:38 31.18945 121.33017 32 ft 23 kts 177°
2026-05-07 08:39 31.18787 121.33026 32 ft 22 kts 177°
2026-05-07 08:39 31.18633 121.33034 32 ft 21 kts 177°
2026-05-07 08:39 31.18485 121.33042 32 ft 20 kts 177°
2026-05-07 08:39 31.18375 121.33049 32 ft 10 kts 176°
2026-05-07 08:40 31.18335 121.33085 32 ft 8 kts 101°
2026-05-07 08:40 31.18336 121.33155 32 ft 8 kts 87°
2026-05-07 08:40 31.18340 121.33227 32 ft 9 kts 87°
2026-05-07 08:40 31.18351 121.33303 32 ft 10 kts 51°
2026-05-07 08:41 31.18425 121.33320 33 ft 13 kts 356°
2026-05-07 08:41 31.18710 121.33302 34 ft 75 kts 357°
2026-05-07 08:41 31.19469 121.33261 29 ft 138 kts 357°
2026-05-07 08:41 31.20613 121.33198 157 ft 177 kts 355°
2026-05-07 08:42 31.21833 121.33122 782 ft 180 kts 354°
2026-05-07 08:42 31.22979 121.32616 1503 ft 182 kts 318°
2026-05-07 08:42 31.23673 121.31422 2095 ft 180 kts 302°
2026-05-07 08:42 31.24270 121.30092 2328 ft 192 kts 301°
2026-05-07 08:43 31.24931 121.28676 2548 ft 203 kts 302°
2026-05-07 08:43 31.25653 121.27214 2764 ft 216 kts 303°
2026-05-07 08:43 31.26462 121.25633 2995 ft 230 kts 303°
2026-05-07 08:43 31.27309 121.23985 3364 ft 243 kts 299°
2026-05-07 08:44 31.27702 121.22031 3760 ft 257 kts 265°
2026-05-07 08:44 31.27011 121.20058 4232 ft 270 kts 235°
2026-05-07 08:44 31.25811 121.18336 4771 ft 275 kts 232°
2026-05-07 08:44 31.24588 121.16582 5382 ft 277 kts 233°
2026-05-07 08:45 31.23410 121.14807 6074 ft 278 kts 234°
2026-05-07 08:45 31.22182 121.13035 6747 ft 280 kts 224°
2026-05-07 08:45 31.20489 121.11948 7301 ft 286 kts 194°
2026-05-07 08:45 31.18489 121.11845 7930 ft 289 kts 177°
2026-05-07 08:46 31.16483 121.12009 8557 ft 290 kts 178°
2026-05-07 08:46 31.14457 121.12161 9141 ft 292 kts 179°
2026-05-07 08:46 31.12410 121.12292 9761 ft 293 kts 180°
2026-05-07 08:46 31.10371 121.12380 10272 ft 295 kts 186°
2026-05-07 08:47 31.08394 121.11784 10509 ft 301 kts 211°
2026-05-07 08:47 31.06770 121.10227 10754 ft 308 kts 234°
2026-05-07 08:47 31.05793 121.07957 10965 ft 316 kts 255°
2026-05-07 08:47 31.05220 121.05485 11401 ft 322 kts 256°
2026-05-07 08:48 31.04606 121.02941 11943 ft 323 kts 256°
2026-05-07 08:48 31.03995 121.00446 12572 ft 322 kts 256°
2026-05-07 08:48 31.03375 120.97940 13134 ft 322 kts 256°
2026-05-07 08:48 31.02752 120.95419 13691 ft 322 kts 256°
2026-05-07 08:49 31.02136 120.92923 14142 ft 324 kts 256°
2026-05-07 08:49 31.01508 120.90382 14563 ft 327 kts 256°
2026-05-07 08:49 31.00882 120.87853 15019 ft 329 kts 256°
2026-05-07 08:49 31.00242 120.85275 15403 ft 332 kts 256°
2026-05-07 08:50 30.99598 120.82685 15808 ft 334 kts 255°
2026-05-07 08:50 30.98947 120.80072 16208 ft 337 kts 255°
2026-05-07 08:50 30.98291 120.77439 16601 ft 338 kts 255°
2026-05-07 08:50 30.97635 120.74808 16969 ft 340 kts 255°
2026-05-07 08:51 30.96973 120.72157 17300 ft 344 kts 255°
2026-05-07 08:51 30.96303 120.69482 17650 ft 346 kts 256°
2026-05-07 08:51 30.95630 120.66797 18027 ft 347 kts 256°
2026-05-07 08:51 30.94948 120.64073 18378 ft 349 kts 256°
2026-05-07 08:52 30.94272 120.61377 18728 ft 351 kts 256°
2026-05-07 08:52 30.93582 120.58625 19063 ft 353 kts 256°
2026-05-07 08:52 30.92891 120.55868 19385 ft 355 kts 256°
2026-05-07 08:52 30.92195 120.53101 19713 ft 357 kts 256°
2026-05-07 08:53 30.91500 120.50333 20040 ft 359 kts 255°
2026-05-07 08:53 30.90794 120.47532 20375 ft 360 kts 255°
2026-05-07 08:53 30.89870 120.44793 20676 ft 365 kts 244°
2026-05-07 08:53 30.88405 120.42390 20994 ft 371 kts 232°
2026-05-07 08:54 30.86449 120.40382 21325 ft 378 kts 221°
2026-05-07 08:54 30.84309 120.38603 21669 ft 379 kts 221°
2026-05-07 08:54 30.82142 120.36825 21954 ft 380 kts 220°
2026-05-07 08:54 30.79981 120.35051 22230 ft 382 kts 220°
2026-05-07 08:55 30.77778 120.33245 22494 ft 385 kts 220°
2026-05-07 08:55 30.75585 120.31442 22781 ft 387 kts 220°
2026-05-07 08:55 30.73394 120.29644 23080 ft 389 kts 220°
2026-05-07 08:55 30.71173 120.27822 23417 ft 389 kts 220°
2026-05-07 08:56 30.68965 120.26011 23715 ft 391 kts 220°
2026-05-07 08:56 30.66725 120.24170 24015 ft 392 kts 220°
2026-05-07 08:56 30.64509 120.22352 24309 ft 394 kts 220°
2026-05-07 08:56 30.62249 120.20499 24610 ft 395 kts 220°
2026-05-07 08:57 30.59984 120.18642 24887 ft 397 kts 220°
2026-05-07 08:57 30.57730 120.16797 25161 ft 399 kts 220°
2026-05-07 08:57 30.55443 120.14925 25468 ft 400 kts 220°
2026-05-07 08:57 30.53156 120.13052 25749 ft 402 kts 220°
2026-05-07 08:58 30.50864 120.11176 26056 ft 402 kts 220°
2026-05-07 08:58 30.48587 120.09316 26364 ft 403 kts 220°
2026-05-07 08:58 30.46274 120.07428 26627 ft 405 kts 220°
2026-05-07 08:58 30.43936 120.05576 26895 ft 407 kts 218°
2026-05-07 08:59 30.41496 120.03855 27139 ft 411 kts 216°
2026-05-07 08:59 30.39008 120.02196 27378 ft 413 kts 215°
2026-05-07 08:59 30.36518 120.00534 27629 ft 415 kts 216°
2026-05-07 08:59 30.33977 119.98841 27891 ft 416 kts 216°
2026-05-07 09:00 30.31470 119.97173 28114 ft 418 kts 216°
2026-05-07 09:00 30.28910 119.95464 28351 ft 419 kts 216°
2026-05-07 09:00 30.26351 119.93762 28562 ft 421 kts 215°
2026-05-07 09:00 30.23791 119.92059 28775 ft 422 kts 216°
2026-05-07 09:01 30.21201 119.90339 28989 ft 424 kts 216°
2026-05-07 09:01 30.18638 119.88634 29207 ft 425 kts 215°
2026-05-07 09:01 30.16043 119.86910 29453 ft 425 kts 216°
2026-05-07 09:01 30.13454 119.85194 29743 ft 424 kts 216°
2026-05-07 09:02 30.10908 119.83508 30118 ft 421 kts 216°
2026-05-07 09:02 30.08368 119.81825 30427 ft 420 kts 216°
2026-05-07 09:02 30.05812 119.80130 30667 ft 419 kts 216°
2026-05-07 09:02 30.03283 119.78447 30890 ft 419 kts 217°
2026-05-07 09:03 30.00744 119.76739 31112 ft 419 kts 217°
2026-05-07 09:03 29.98208 119.75030 31389 ft 417 kts 217°
2026-05-07 09:03 29.95715 119.73354 31643 ft 416 kts 218°
2026-05-07 09:03 29.93187 119.71646 31804 ft 417 kts 218°
2026-05-07 09:04 29.90687 119.69964 31992 ft 418 kts 217°
2026-05-07 09:04 29.88184 119.68289 32044 ft 418 kts 218°
2026-05-07 09:04 29.83265 119.64733 32053 ft 413 kts 221°
2026-05-07 09:05 29.78439 119.60957 32057 ft 420 kts 221°
2026-05-07 09:05 29.73543 119.57125 32057 ft 428 kts 221°
2026-05-07 09:06 29.68592 119.53243 32062 ft 433 kts 222°
2026-05-07 09:06 29.63859 119.49017 32047 ft 433 kts 227°
2026-05-07 09:07 29.59456 119.44254 32049 ft 431 kts 231°
2026-05-07 09:07 29.55442 119.39202 32052 ft 429 kts 233°
2026-05-07 09:08 29.51401 119.34061 32063 ft 428 kts 233°
2026-05-07 09:08 29.47321 119.28879 32044 ft 429 kts 233°
2026-05-07 09:09 29.43279 119.23737 32038 ft 429 kts 233°
2026-05-07 09:09 29.39288 119.18661 32048 ft 427 kts 233°
2026-05-07 09:10 29.35287 119.13590 32039 ft 429 kts 233°
2026-05-07 09:10 29.31262 119.08504 32041 ft 429 kts 233°
2026-05-07 09:11 29.27235 119.03420 32038 ft 427 kts 233°
2026-05-07 09:11 29.23223 118.98368 32029 ft 427 kts 233°
2026-05-07 09:12 29.19198 118.93324 32033 ft 428 kts 233°
2026-05-07 09:12 29.15164 118.88264 32050 ft 428 kts 233°
2026-05-07 09:13 29.11126 118.83203 32038 ft 428 kts 233°